Flag for Cameroon Weather past 2 weeks in Bamenda, Cameroon

Now
91 °F

Partly sunny.


Feels Like: 103 °F
Forecast: 64 / 81 °F
Wind: 5 mph from West

Location: Douala Obs.


UV Index: 10 (Very high)

Visibility: N/A


Pressure: 29.80 "Hg

Humidity: 59%

Dew point: 75 °F

Location of BamendaLocation

Historic Weather in Bamenda

°F

Bamenda temperature yesterday

Maximum temperature yesterday: 90 °F (at 2:00 PM)
Minimum temperature yesterday: 73 °F (at 4:00 AM)
Average temperature yesterday: 81 °F

Past Weeks' High & Low Weather Summary

 TemperatureHumidityPressure
High93 °F (Apr 2, 1:00 PM)100% (Apr 3, 7:00 AM)29.95 "Hg (Apr 3, 7:00 AM)
Low72 °F (Apr 12, 9:00 PM)47% (Apr 2, 1:00 PM)29.71 "Hg (Apr 12, 3:00 PM)
Average81 °F83%29.85 "Hg
* Reported Apr 2 1:00 PM — Apr 17 1:00 PM, Bamenda, Weather by CustomWeather, © 2014

Note: Actual official high and low records may vary slightly from our data, if they occured in-between our weather recording intervals... More about our weather records

Advertising

Historic Weather Conditions — Data for Previous 24 hours

 ConditionsComfort  
Time TempWeatherWind HumidityBarometerVisibility
1:00 PM
Apr 17
91 °FPartly sunny.5 mph59%29.80 "HgN/A
12:00 PM88 °FPartly sunny.5 mph66%29.86 "HgN/A
11:00 AM84 °FBroken clouds.5 mph79%29.89 "HgN/A
10:00 AM82 °FScattered clouds.6 mph74%29.89 "HgN/A
9:00 AM79 °FScattered clouds.3 mph84%29.89 "HgN/A
8:00 AM79 °FThunderstorms. Broken clouds.7 mph84%29.86 "Hg5 mi
7:00 AM79 °FThunderstorms. Broken clouds.No wind89%29.83 "Hg4 mi
6:00 AM77 °FThunderstorms. Partly cloudy.No wind100%29.80 "HgN/A
5:00 AM77 °FThunderstorms. Partly cloudy.No wind100%29.80 "HgN/A
4:00 AM79 °FThunderstorms. Partly cloudy.No wind94%29.80 "HgN/A
3:00 AM79 °FThunderstorms. Partly cloudy.No wind94%29.80 "HgN/A
2:00 AM79 °FThunderstorms. Partly cloudy.No wind94%29.83 "HgN/A
1:00 AM79 °FPartly cloudy.No wind94%29.86 "HgN/A
12:00 AM79 °FPartly cloudy.No wind94%29.86 "HgN/A
11:00 PM
Apr 16
79 °FPartly cloudy.No wind94%29.86 "HgN/A
10:00 PM79 °FPassing clouds.No wind94%29.86 "HgN/A
9:00 PM79 °FThunderstorms. Partly cloudy.No wind94%29.83 "HgN/A
8:00 PM82 °FPassing clouds.1 mph79%29.80 "HgN/A
7:00 PM82 °FPassing clouds.2 mph79%29.80 "HgN/A
6:00 PM84 °FPartly sunny.5 mph79%29.77 "HgN/A
5:00 PM88 °FBroken clouds.5 mph62%29.77 "HgN/A
4:00 PM90 °FBroken clouds.9 mph59%29.77 "HgN/A
3:00 PM90 °FBroken clouds.5 mph59%29.80 "HgN/A
2:00 PM90 °FBroken clouds.No wind63%29.83 "HgN/A
Weather by CustomWeather, © 2014

See weather overview